Location: Nairn
(57.5833°N, 3.8667°W)
Time: 05:46:57
(UTC+00:00)

Tiros 1 - Visible Passes

Search period start: 25 September 2022 00:00
Search period end: 05 October 2022 00:00
Orbit: 629 x 663 km, 48.4° (Epoch: 24 September)

Date Brightness Start Highest point End Pass type
(mag) Time Alt. Az. Time Alt. Az. Time Alt. Az.
25 Sep 9.0 03:18:18 17° SSE 03:18:31 17° SSE 03:21:36 10° ESE visible
25 Sep 8.6 04:55:56 11° SW 04:59:42 27° S 05:03:38 10° ESE visible
26 Sep 8.6 03:42:50 22° S 03:43:40 23° SSE 03:47:21 10° ESE visible
26 Sep 8.5 05:20:59 10° WSW 05:24:57 27° S 05:28:54 10° SE visible
27 Sep 9.5 02:29:45 13° SE 02:29:45 13° SE 02:30:42 10° ESE visible
27 Sep 8.5 04:07:23 22° SSW 04:08:53 26° S 04:12:49 10° ESE visible
28 Sep 9.0 02:54:17 19° SE 02:54:17 19° SE 02:56:30 10° ESE visible
28 Sep 8.4 04:31:56 19° SW 04:34:08 27° S 04:38:06 10° SE visible
29 Sep 8.6 03:18:51 25° SSE 03:18:51 25° SSE 03:21:59 10° ESE visible
29 Sep 8.5 04:56:30 14° WSW 04:59:23 24° SSW 05:03:10 10° SE visible
30 Sep 8.3 03:43:28 27° S 03:43:28 27° S 03:47:18 10° SE visible
30 Sep 8.8 05:21:10 10° WSW 05:24:33 19° SSW 05:27:53 10° SSE visible
01 Oct 9.6 02:30:28 13° ESE 02:30:28 13° ESE 02:31:10 10° ESE visible
01 Oct 8.4 04:08:06 25° SSW 04:08:33 25° SSW 04:12:24 10° SE visible
02 Oct 9.3 02:55:11 17° SE 02:55:11 17° SE 02:56:29 10° ESE visible
02 Oct 8.6 04:32:50 19° SW 04:33:44 20° SSW 04:37:10 10° SSE visible
03 Oct 9.1 03:19:59 18° SSE 03:19:59 18° SSE 03:21:37 10° SE visible
03 Oct 9.0 04:57:38 13° SW 04:58:49 14° SSW 05:01:20 10° S visible
04 Oct 9.1 03:44:53 16° SSE 03:44:53 16° SSE 03:46:26 10° SSE visible
